Regional Weather Roundup
Issued by NWS Cleveland, OH

Home | Current Version | Previous Version | Graphics & Text | Print | Product List | Glossary On
Versions: 1 2 3 4 5 6 7 8 9 10 11 12 13 14 15 16 17 18 19 20 21 22 23 24 25 26 27 28 29 30 31 32 33 34 35 36 37 38 39 40 41 42 43 44 45 46 47 48 49 50
000
ASUS41 KCLE 220410
RWRCLE
OHIO REGIONAL WEATHER ROUNDUP
NATIONAL WEATHER SERVICE CLEVELAND, OH
1200 AM EDT SAT JUL 22 2017

NOTE: "FAIR" INDICATES FEW OR NO CLOUDS BELOW 12,000 FEET WITH NO
SIGNIFICANT WEATHER AND/OR OBSTRUCTIONS TO VISIBILITY.

OHZ001>008-015>018-024>027-034-035-043-044-220500-
   NORTHWEST OHIO

CITY           SKY/WX    TMP DP  RH WIND       PRES   REMARKS
DEFIANCE       CLOUDY   N/A N/A N/A SW6       29.95S
FINDLAY        CLOUDY    76  70  82 S3        29.95S
TOLEDO EXPRESS CLOUDY    76  69  79 SE5       29.93F
TOLEDO EXEC    CLOUDY    78  71  79 SE8       29.95F
LIMA           PTCLDY    74  72  93 S6        29.97R
$$

OHZ009>014-019>023-028>033-038-089-220500-
   NORTHEAST OHIO

CITY           SKY/WX    TMP DP  RH WIND       PRES   REMARKS
CLE-HOPKINS    MOCLDY    76  69  79 S5        29.98S
CLE-LAKEFRONT  PTCLDY    78  65  63 SE3       29.95R
CUY CO. ARPT   NOT AVBL
LORAIN-ELYRIA  CLOUDY    72  66  81 CALM      29.98S
ASHTABULA      PTCLDY    67  66  97 CALM      29.99R
AKRON-CANTON   PTCLDY    76  67  73 SE6       30.00S
WOOSTER        PTCLDY    73  71  93 CALM      30.00R
MANSFIELD      PTCLDY    75  72  90 CALM      30.00S
YOUNGSTOWN     MOCLDY    69  66  90 CALM      29.99R
$$

OHZ042-051>053-060>062-070>072-077>081-220500-
  SOUTHWEST OHIO

CITY           SKY/WX    TMP DP  RH WIND       PRES   REMARKS
CINC-COVINGTON CLOUDY    76  73  91 S5        29.97S
CINC-LUNKEN    CLOUDY    73  73 100 CALM      29.97S
HAMILTON       PTCLDY    76  74  93 CALM      29.98S
DAYTON         PTCLDY    73  72  96 SE7       29.99F
WRIGHT-PAT AFB PTCLDY    74  74 100 CALM      29.97F
DAYTON GENERAL CLOUDY    74  72  93 CALM      29.98F
WILMINGTON     TSTM      74  74 100 NE6       29.99F
$$

OHZ036-037-039>041-045>050-054>059-063>069-073>076-082>088-220500-
  CENTRAL AND SOUTHEAST OHIO

CITY           SKY/WX    TMP DP  RH WIND       PRES   REMARKS
COLUMBUS       MOCLDY    77  74  90 CALM      29.98R
OSU AIRPORT    CLEAR     74  74 100 CALM      29.98R
BOLTON FIELD   PTCLDY    72  72 100 SW3       30.00S
RICKENBACK AFB MOCLDY    73  73 100 SW3       29.99R
NEWARK         MOCLDY    73  71  93 CALM      29.98R
MARION         CLEAR     74  71  91 CALM      29.98S
LANCASTER      PTCLDY    72  72 100 SW3       30.00R
ZANESVILLE     CLEAR     75  72  90 CALM      29.99R
NEW PHILLY     NOT AVBL
$$



USA.gov is the U.S. government's official web portal to all federal, state and local government web resources and services.